TimeCDT,TemperatureF,Dew PointF,Humidity,Sea Level PressureIn,VisibilityMPH,Wind Direction,Wind SpeedMPH,Gust SpeedMPH,PrecipitationIn,Events,Conditions,WindDirDegrees,DateUTC
12:53 AM,59.0,43.0,55,30.27,10.0,NE,6.9,-,N/A,,Clear,50,2013-10-25 05:53:00
1:53 AM,57.0,42.1,57,30.29,10.0,NE,6.9,-,N/A,,Clear,40,2013-10-25 06:53:00
2:53 AM,55.0,42.1,62,30.29,10.0,NE,5.8,-,N/A,,Clear,50,2013-10-25 07:53:00
3:53 AM,55.0,44.1,67,30.30,10.0,ENE,8.1,-,N/A,,Clear,70,2013-10-25 08:53:00
4:53 AM,55.0,45.0,69,30.31,10.0,ENE,9.2,-,N/A,,Clear,60,2013-10-25 09:53:00
5:53 AM,54.0,46.0,75,30.32,10.0,East,9.2,-,N/A,,Clear,80,2013-10-25 10:53:00
6:53 AM,53.1,46.0,77,30.35,10.0,East,10.4,-,N/A,,Clear,80,2013-10-25 11:53:00
7:53 AM,52.0,45.0,77,30.36,10.0,East,10.4,-,N/A,,Clear,80,2013-10-25 12:53:00
8:53 AM,54.0,44.1,69,30.37,10.0,East,16.1,20.7,N/A,,Clear,90,2013-10-25 13:53:00
9:53 AM,55.9,42.1,60,30.39,10.0,ESE,13.8,24.2,N/A,,Clear,120,2013-10-25 14:53:00
10:53 AM,59.0,42.1,53,30.39,10.0,East,13.8,-,N/A,,Clear,90,2013-10-25 15:53:00
11:53 AM,63.0,43.0,48,30.38,10.0,East,10.4,-,0.00,,Clear,100,2013-10-25 16:53:00
12:53 PM,64.9,44.1,47,30.36,10.0,East,8.1,-,N/A,,Clear,90,2013-10-25 17:53:00
1:53 PM,66.0,45.0,47,30.33,10.0,ESE,9.2,-,N/A,,Clear,120,2013-10-25 18:53:00
2:53 PM,68.0,46.0,45,30.30,10.0,ESE,10.4,-,0.00,,Clear,110,2013-10-25 19:53:00
3:53 PM,69.1,46.0,44,30.28,10.0,East,8.1,-,N/A,,Clear,100,2013-10-25 20:53:00
4:53 PM,69.1,46.9,45,30.26,10.0,ESE,9.2,-,N/A,,Clear,110,2013-10-25 21:53:00
5:53 PM,66.0,46.9,50,30.25,10.0,East,8.1,-,N/A,,Clear,80,2013-10-25 22:53:00
6:53 PM,63.0,48.0,58,30.26,10.0,East,4.6,-,N/A,,Clear,100,2013-10-25 23:53:00
7:53 PM,60.1,48.9,67,30.28,10.0,Calm,Calm,-,N/A,,Clear,0,2013-10-26 00:53:00
8:53 PM,59.0,48.9,69,30.26,10.0,ESE,6.9,-,N/A,,Clear,110,2013-10-26 01:53:00
9:53 PM,57.9,48.9,72,30.26,10.0,ESE,6.9,-,N/A,,Clear,120,2013-10-26 02:53:00
10:53 PM,57.0,48.0,72,30.25,10.0,ESE,10.4,-,N/A,,Clear,120,2013-10-26 03:53:00
11:53 PM,55.9,48.0,75,30.24,10.0,SE,8.1,-,N/A,,Clear,130,2013-10-26 04:53:00